Hourly Data Report for September 20, 2017

All times are specified in Local Standard Time (LST). Add 1 hour to adjust for Daylight Saving Time where and when it is observed.

BAKER LAKE A
NUNAVUT

64°17'56.000" N
96°04'40.000" W
18.60 m
2300503
71926
YBK

Download Data

Hourly Data (September 2017)
Hourly Data Report for September 20, 2017
Temp Definition
°C
Dew Point Temp Definition
°C
Rel Hum Definition
%
Wind Dir Definition
10's deg

Wind Spd Definition
km/h
Visibility Definition
km
Stn Press Definition
kPa
Hmdx Definition


Wind Chill Definition


Weather Definition


TIME
00:00 Legend Double Dagger 4.3 3.4 94 18 4 24.1 101.90     Mainly Clear
01:00 Legend Double Dagger 5.5 4.5 93 13 14 24.1 101.91     LegendNANA
02:00 Legend Double Dagger 6.0 4.5 90 14 13 24.1 101.96     LegendNANA
03:00 Legend Double Dagger 6.0 4.2 89 15 9 24.1 101.99     Mostly Cloudy
04:00 Legend Double Dagger 5.9 3.9 87 14 9 24.1 101.97     LegendNANA
05:00 Legend Double Dagger 5.6 3.6 87 12 11 32.2 101.96     LegendNANA
06:00 Legend Double Dagger 5.9 4.0 87 9 9 32.2 102.04     Cloudy
07:00 Legend Double Dagger 5.7 4.2 90 17 4 32.2 102.11     LegendNANA
08:00 Legend Double Dagger 6.0 3.2 82 7 12 32.2 102.10     LegendNANA
09:00 Legend Double Dagger 6.4 3.1 79 7 15 32.2 102.11     Cloudy
10:00 Legend Double Dagger 7.7 3.8 76 8 17 32.2 102.08     LegendNANA
11:00 Legend Double Dagger 7.8 3.5 74 11 19 32.2 102.07     LegendNANA
12:00 Legend Double Dagger 8.1 3.6 73 11 19 32.2 102.09     Mostly Cloudy
13:00 Legend Double Dagger 8.1 0.4 58 11 17 32.2 102.11     LegendNANA
14:00 Legend Double Dagger 8.1 1.2 62 10 18 32.2 102.10     LegendNANA
15:00 Legend Double Dagger 7.8 2.4 68 9 17 32.2 102.10     Cloudy
16:00 Legend Double Dagger 7.8 1.3 63 9 22 32.2 102.07     LegendNANA
17:00 Legend Double Dagger 7.8 1.1 62 10 18 32.2 102.05     LegendNANA
18:00 Legend Double Dagger 7.4 1.9 68 8 15 32.2 102.03     Mostly Cloudy
19:00 Legend Double Dagger 7.3 3.2 75 9 20 32.2 102.02     LegendNANA
20:00 Legend Double Dagger 6.7 1.7 70 10 27 24.1 102.06     LegendNANA
21:00 Legend Double Dagger 6.6 0.8 66 10 29 24.1 102.07     Cloudy
22:00 Legend Double Dagger 6.2 1.6 72 8 21 32.2 102.03     LegendNANA
23:00 Legend Double Dagger 5.4 2.0 78 8 22 24.1 102.00     LegendNANA

Notes on Data Quality.

Legend

  • E = Estimated
  • M = Missing
  • NA = Not Available
  • ‡ = Partner data that is not subject to review by the National Climate Archives
Date modified: